Simultaneous Nadir Overpasses (SNOs) Predictions

Prediction of SNOs between NOAA-19 and TERRA Satellite Orbit:

Table of predicted SNOs for the next 14.0 days since TLE Epoch: 8/11/2015
Index Date (NOAA-19) Time (NOAA-19) Lat,Lon (NOAA-19) SZA (NOAA-19 ) Date (TERRA) Time (TERRA) Lat,Lon (TERRA) SZA (TERRA ) Distance(km) Time Diff (sec)
1 08/11/2015 06:38:53 -72.30, -95.40 123.11 08/11/2015 06:39:16 -72.33, -95.41 123.09 2.98 23
2 08/11/2015 07:29:49 72.22, 72.03 56.82 08/11/2015 07:28:43 72.23, 72.07 56.83 2.47 66
3 08/13/2015 11:22:18 -72.63,-166.87 122.14 08/13/2015 11:23:29 -72.51,-166.14 122.24 27.55 71
4 08/13/2015 12:13:09 72.31, 1.05 57.57 08/13/2015 12:12:58 72.31, 1.13 57.57 2.70 11
5 08/15/2015 16:56:28 72.36, -69.83 58.30 08/15/2015 16:57:13 72.37, -69.81 58.32 1.86 45
6 08/15/2015 17:47:31 -72.23, 97.65 121.81 08/15/2015 17:46:43 -72.26, 97.61 121.80 3.13 48
7 08/17/2015 22:30:51 -72.32, 26.67 121.03 08/17/2015 22:30:58 -72.32, 26.66 121.03 0.68 7
8 08/17/2015 23:21:40 71.93,-165.27 58.61 08/17/2015 23:20:29 72.01,-166.26 58.66 35.28 71
9 08/20/2015 03:14:10 -72.37, -44.21 120.26 08/20/2015 03:15:13 -72.38, -44.31 120.26 3.13 63
10 08/20/2015 04:05:05 72.29, 123.23 59.67 08/20/2015 04:04:40 72.28, 123.16 59.65 2.70 25
11 08/22/2015 08:48:25 72.40, 52.22 60.51 08/22/2015 08:48:54 72.38, 52.28 60.49 2.79 29
12 08/22/2015 09:39:28 -72.25,-140.26 119.62 08/22/2015 09:38:24 -72.27,-140.29 119.61 2.27 64
13 08/24/2015 13:31:53 72.91, -19.67
